Weather observations for the past three days for
Bermuda
| Date | Time (adt) | Wind (mph) | Vis. (mi.) | Weather | Sky Cond. | Temperature (ºF) | Relative Humidity | Wind Chill (°F) | Heat Index (°F) | Pressure | Precipitation (in) | ||||||
|---|---|---|---|---|---|---|---|---|---|---|---|---|---|---|---|---|---|
| Air | Dwpt | 6 hour | altimeter (in) | sea level (mb) | 1 hr | 3 hr | 6 hr | ||||||||||
| Max. | Min. | ||||||||||||||||
| 05 | 20:55 | NE 10 | 0.00 | Mostly Cloudy | FEW011 BKN033 BKN300 | 68 | 64.4 | 88% | 0 | 0.0 | |||||||
| 05 | 19:55 | NE 10 | 0.00 | Mostly Cloudy | BKN009 BKN035 BKN300 | 68 | 66.2 | 94% | 0 | 0.0 | |||||||
| 05 | 18:55 | NE 12 | 0.00 | Showers in Vicinity | SCT008 BKN030 BKN300 | 68 | 64.4 | 88% | 0 | 0.0 | |||||||
| 05 | 17:55 | NE 14 | 0.00 | Mostly Cloudy | SCT010 BKN021 BKN034 BKN300 | 69.8 | 64.4 | 83% | 0 | 0.0 | |||||||
| 05 | 16:55 | NE 14 | 0.00 | Mostly Cloudy | FEW015 BKN025 BKN300 | 69.8 | 62.6 | 78% | 0 | 0.0 | |||||||
| 05 | 15:55 | NE 17 | 0.00 | Mostly Cloudy | FEW014 BKN027 BKN300 | 71.6 | 64.4 | 78% | 0 | 0.0 | |||||||
| 05 | 14:55 | NE 17 | 0.00 | Mostly Cloudy | SCT016 BKN300 | 71.6 | 62.6 | 73% | 0 | 0.0 | |||||||
| 05 | 13:55 | NE 20 | 0.00 | Mostly Cloudy | SCT016 BKN300 | 71.6 | 64.4 | 78% | 0 | 0.0 | |||||||
| 05 | 12:55 | NE 18 | 0.00 | Showers in Vicinity | FEW016 SCT037 BKN300 | 69.8 | 62.6 | 78% | 0 | 0.0 | |||||||
| 05 | 11:55 | E 17 | 0.00 | Showers in Vicinity | SCT015 BKN050 BKN300 | 71.6 | 62.6 | 73% | 0 | 0.0 | |||||||
| 05 | 10:55 | NE 17 | 0.00 | Showers in Vicinity | SCT017 BKN220 BKN300 | 69.8 | 62.6 | 78% | 0 | 0.0 | |||||||
| 05 | 09:55 | NE 14 | 0.00 | Mostly Cloudy | FEW016 FEW043 BKN300 | 68 | 60.8 | 78% | 0 | 0.0 | |||||||
| 05 | 08:55 | NE 12 | 0.00 | Mostly Cloudy | SCT017 BKN035 BKN300 | 68 | 62.6 | 83% | 0 | 0.0 | |||||||
| 05 | 07:55 | NE 12 | 0.00 | Mostly Cloudy | SCT016 BKN030 BKN300 | 68 | 60.8 | 78% | 0 | 0.0 | |||||||
| 05 | 06:55 | NE 8 | 0.00 | Mostly Cloudy | FEW015 SCT027 BKN300 | 64.4 | 60.8 | 88% | 0 | 0.0 | |||||||
| 05 | 05:55 | NE 10 | 0.00 | Partly Cloudy | FEW013 SCT031 | 64.4 | 60.8 | 88% | 0 | 0.0 | |||||||
| 05 | 04:55 | NE 10 | 0.00 | Mostly Cloudy | SCT014 BKN030 | 64.4 | 59 | 83% | 0 | 0.0 | |||||||
| 05 | 03:55 | NE 8 | 0.00 | Mostly Cloudy | SCT014 BKN031 | 64.4 | 60.8 | 88% | 0 | 0.0 | |||||||
| 05 | 02:55 | NE 9 | 0.00 | Mostly Cloudy | FEW014 BKN027 | 64.4 | 60.8 | 88% | 0 | 0.0 | |||||||
| 05 | 01:55 | N 9 | 0.00 | Mostly Cloudy | FEW008 SCT021 BKN052 | 64.4 | 60.8 | 88% | 0 | 0.0 | |||||||
| 05 | 00:55 | NE 7 | 0.00 | Mostly Cloudy | BKN025 BKN054 BKN300 | 64.4 | 60.8 | 88% | 0 | 0.0 | |||||||
| 04 | 23:55 | NE 7 | 0.00 | Overcast | FEW013 OVC023 | 62.6 | 59 | 88% | 0 | 0.0 | |||||||
| 04 | 22:55 | NE 7 | 0.00 | Light Rain | FEW013 BKN028 OVC300 | 62.6 | 57.2 | 83% | 0 | 0.0 | |||||||
| 04 | 21:55 | E 5 | 0.00 | Light Rain | SCT014 BKN026 OVC300 | 62.6 | 59 | 88% | 0 | 0.0 | |||||||
| 04 | 20:55 | E 7 | 0.00 | Light Rain | SCT016 BKN033 OVC120 | 62.6 | 59 | 88% | 0 | 0.0 | |||||||
| 04 | 19:55 | E 8 | 0.00 | Light Rain | FEW025 BKN038 OVC120 | 62.6 | 57.2 | 83% | 0 | 0.0 | |||||||
| 04 | 18:55 | E 7 | 0.00 | Light Rain | FEW047 BKN061 OVC110 | 64.4 | 57.2 | 78% | 0 | 0.0 | |||||||
| 04 | 17:55 | E 7 | 0.00 | Light Rain | FEW033 BKN061 OVC110 | 64.4 | 55.4 | 73% | 0 | 0.0 | |||||||
| 04 | 16:55 | E 12 | 0.00 | Light Rain | FEW036 SCT056 OVC110 | 64.4 | 55.4 | 73% | 0 | 0.0 | |||||||
| 04 | 15:55 | E 10 | 0.00 | Overcast | FEW037 SCT061 BKN140 OVC300 | 66.2 | 51.8 | 60% | 0 | 0.0 | |||||||
| 04 | 14:55 | NE 12 | 0.00 | Overcast | SCT037 BKN070 BKN160 OVC300 | 66.2 | 51.8 | 60% | 0 | 0.0 | |||||||
| 04 | 13:55 | NE 10 | 0.00 | Overcast | SCT037 SCT070 BKN190 OVC300 | 66.2 | 51.8 | 60% | 0 | 0.0 | |||||||
| 04 | 12:55 | NE 12 | 0.00 | Overcast | SCT034 BKN160 OVC300 | 66.2 | 51.8 | 60% | 0 | 0.0 | |||||||
| 04 | 11:55 | NE 12 | 0.00 | Overcast | SCT034 SCT130 OVC300 | 66.2 | 53.6 | 64% | 0 | 0.0 | |||||||
| 04 | 10:55 | NE 10 | 0.00 | Overcast | FEW037 SCT170 OVC300 | 66.2 | 51.8 | 60% | 0 | 0.0 | |||||||
| 04 | 09:55 | NE 10 | 0.00 | Overcast | FEW037 BKN170 BKN200 OVC300 | 64.4 | 50 | 60% | 0 | 0.0 | |||||||
| 04 | 08:55 | N 13 | 0.00 | Overcast | FEW043 SCT180 OVC300 | 64.4 | 50 | 60% | 0 | 0.0 | |||||||
| 04 | 07:55 | N 13 | 0.00 | Mostly Cloudy | FEW041 FEW170 BKN220 BKN300 | 64.4 | 51.8 | 64% | 0 | 0.0 | |||||||
| 04 | 06:55 | N 13 | 0.00 | Mostly Cloudy | SCT039 SCT110 BKN180 BKN300 | 64.4 | 50 | 60% | 0 | 0.0 | |||||||
| 04 | 05:55 | N 15 | 0.00 | Overcast | FEW040 FEW100 BKN160 OVC300 | 64.4 | 50 | 60% | 0 | 0.0 | |||||||
| 04 | 04:55 | N 14 | 0.00 | Overcast | FEW039 FEW100 BKN170 OVC230 | 64.4 | 51.8 | 64% | 0 | 0.0 | |||||||
| 04 | 03:55 | N 14 | 0.00 | Overcast | SCT036 SCT100 BKN210 OVC300 | 66.2 | 51.8 | 60% | 0 | 0.0 | |||||||
| 04 | 02:55 | N 14 | 0.00 | Overcast | FEW030 SCT110 BKN170 OVC210 | 66.2 | 53.6 | 64% | 0 | 0.0 | |||||||
| 04 | 01:55 | N 14 | 0.00 | Overcast | FEW028 SCT110 SCT160 OVC210 | 66.2 | 55.4 | 68% | 0 | 0.0 | |||||||
| 04 | 00:55 | N 12 | 0.00 | Overcast | BKN027 OVC140 | 66.2 | 57.2 | 73% | 0 | 0.0 | |||||||
| 03 | 23:55 | N 12 | 0.00 | Overcast | SCT018 BKN036 BKN140 OVC180 | 68 | 60.8 | 78% | 0 | 0.0 | |||||||
| 03 | 22:55 | NW 10 | 0.00 | Overcast | FEW013 BKN028 OVC130 | 68 | 62.6 | 83% | 0 | 0.0 | |||||||
| 03 | 21:55 | NW 10 | 0.00 | Light Rain | FEW013 SCT034 BKN110 OVC180 | 68 | 62.6 | 83% | 0 | 0.0 | |||||||
| 03 | 20:55 | NW 12 | 0.00 | Showers Rain | FEW011 SCT022 BKN061 OVC091 | 68 | 64.4 | 88% | 0 | 0.0 | |||||||
| 03 | 19:55 | W 12 | 0.00 | Light Rain | FEW015 SCT064 OVC160 | 69.8 | 62.6 | 78% | 0 | 0.0 | |||||||
| 03 | 18:55 | W 12 | 0.00 | Overcast | FEW008 BKN060 BKN110 OVC150 | 71.6 | 68 | 88% | 0 | 0.0 | |||||||
| 03 | 17:55 | W 14 | 0.00 | Showers in Vicinity | FEW009 BKN059 BKN100 OVC300 | 71.6 | 68 | 88% | 0 | 0.0 | |||||||
| 03 | 16:55 | SW 22 | 0.00 | Light Showers Rain and Breezy | BKN014 BKN035 OVC057 | 73.4 | 69.8 | 89% | 0 | 0.0 | |||||||
| 03 | 15:55 | SW 22 | 0.00 | Overcast and Breezy | FEW013 BKN028 OVC300 | 75.2 | 69.8 | 83% | 75 | 0 | 0.0 | ||||||
| 03 | 14:55 | SW 24 | 0.00 | Mostly Cloudy and Breezy | FEW016 SCT042 BKN072 BKN300 | 77 | 68 | 74% | 79 | 0 | 0.0 | ||||||
| 03 | 13:55 | SW 23 | 0.00 | Mostly Cloudy and Breezy | FEW011 SCT024 BKN080 BKN300 | 77 | 69.8 | 79% | 79 | 0 | 0.0 | ||||||
| 03 | 12:55 | SW 23 | 0.00 | Mostly Cloudy and Breezy | BKN012 BKN024 BKN300 | 77 | 69.8 | 79% | 79 | 0 | 0.0 | ||||||
| 03 | 11:55 | SW 23 | 0.00 | Mostly Cloudy and Breezy | BKN010 BKN021 BKN300 | 77 | 69.8 | 79% | 79 | 0 | 0.0 | ||||||
| 03 | 10:55 | SW 24 | 0.00 | Mostly Cloudy and Breezy | BKN010 BKN300 | 75.2 | 69.8 | 83% | 75 | 0 | 0.0 | ||||||
| 03 | 09:55 | SW 22 | 0.00 | Mostly Cloudy and Breezy | BKN009 BKN300 | 73.4 | 69.8 | 89% | 0 | 0.0 | |||||||
| 03 | 08:55 | SW 22 | 0.00 | Mostly Cloudy and Breezy | BKN008 BKN300 | 73.4 | 69.8 | 89% | 0 | 0.0 | |||||||
| 03 | 07:55 | SW 21 | 0.00 | Mostly Cloudy and Breezy | BKN009 BKN300 | 71.6 | 69.8 | 94% | 0 | 0.0 | |||||||
| 03 | 06:55 | SW 21 | 0.00 | Mostly Cloudy and Breezy | SCT006 BKN014 BKN300 | 71.6 | 69.8 | 94% | 0 | 0.0 | |||||||
| 03 | 05:55 | SW 15 | 0.00 | Mostly Cloudy | BKN006 BKN300 | 71.6 | 69.8 | 94% | 0 | 0.0 | |||||||
| 03 | 04:55 | SW 14 | 0.00 | Mostly Cloudy | BKN006 | 71.6 | 69.8 | 94% | 0 | 0.0 | |||||||
| 03 | 03:55 | SW 14 | 0.00 | Mostly Cloudy | BKN008 | 71.6 | 69.8 | 94% | 0 | 0.0 | |||||||
| 03 | 02:55 | S 14 | 0.00 | Mostly Cloudy | BKN005 | 71.6 | 69.8 | 94% | 0 | 0.0 | |||||||
| 03 | 01:55 | S 14 | 0.00 | Partly Cloudy | SCT006 | 71.6 | 68 | 88% | 0 | 0.0 | |||||||
| 03 | 00:55 | S 13 | 0.00 | Partly Cloudy | FEW008 FEW025 SCT300 | 69.8 | 68 | 94% | 0 | 0.0 | |||||||
| 02 | 23:55 | S 13 | 0.00 | Partly Cloudy | FEW016 FEW031 SCT210 SCT300 | 71.6 | 68 | 88% | 0 | 0.0 | |||||||
| 02 | 22:55 | S 12 | 0.00 | Mostly Cloudy | FEW016 SCT160 BKN210 BKN300 | 71.6 | 68 | 88% | 0 | 0.0 | |||||||
| 02 | 21:55 | S 10 | 0.00 | Partly Cloudy | FEW017 SCT190 SCT300 | 71.6 | 66.2 | 83% | 0 | 0.0 | |||||||
| Date | Time (adt) | Wind (mph) | Vis. (mi.) | Weather | Sky Cond. | Air | Dwpt | Max. | Min. | Relative Humidity | Wind Chill (°F) | Heat Index (°F) | altimeter (in) | sea level (mb) | 1 hr | 3 hr | 6 hr |
| 6 hour | |||||||||||||||||
| Temperature (ºF) | Pressure | Precipitation (in) | |||||||||||||||